Погода в Средних Апочках

Россия / Курская область     51°30′53″N   37°41′44″E
темп.,
°C
ветер,
м/с
пор.,
м/с
влажн.,
%
обл.,
%
осадки,
мм/ч
давл.,
гПа
погр.,
м
2 марта, вт
вт200:00−1з5982100 0.0 1026658
03:00−1зюз61287100 0.0 1024512
06:000зюз71487100 0.0 1020687
09:000з81489100 0.0 1018662
12:00+1з71293100 0.0 1016783
15:00+2з71290100 0.1 1015631
18:00+1зсз51197100 0.1 1013471
21:00+1сз51097100 1.1 1013507
3 марта, ср
ср300:000с61098100 1.5 1013566
03:00−2ссз6128968 1.8 1015493
06:00−1ссз6128095 0.1 1016738
09:00−2ссз8127964 0.1 10191169
12:00−1ссз8116838 0.0 10201196
15:000сз697049 0.1 1021968
18:00−1зсз4107921 0.0 1021372
21:00−1з5128211 0.0 1021462
4 марта, чт
чт400:00−2з411895 0.0 1020393
03:00−2з510913 0.0 1019303
06:00−2зюз5109273 0.0 1018326
09:00−1зюз6128036 0.0 1016549
12:00+3зюз813620 0.0 1013791
15:00+4юз914560 0.0 1011909
18:00+3юз716730 0.0 1008666
21:00+2юз717816 0.0 1007577
5 марта, пт
пт500:00+3зюз71487100 0.1 1006496
03:00+2зюз6129398 0.1 1006400
06:00+1зюз4109299 0.1 1007363
09:00+2зюз5109094 0.1 1007623
12:00+3юз3697100 0.2 1007399
15:00+3юз51298100 2.7 1005613
18:00+3зюз61596100 3.0 1004673
21:00+1зсз3798100 5.3 1005241
6 марта, сб
сб600:000зсз5996100 0.0 1006498
03:00−3ссз61086100 0.1 1008684
06:00−3ссз5881100 0.0 1011740
09:00−3ссз587295 0.1 1013735
12:00−2сз56530 0.0 10141210
15:00−1сз56490 0.0 10141595
18:00−3ссз246147 0.0 1015272
21:00−4ссз358574 0.1 1016422